Location: Firdgum
(53.2488°N, 5.5615°E)
Time: 18:31:31
(UTC+00:00)

SKYMED 2 - Pass Details

Date: 08 December 2019
Orbit: 621 x 623 km, 97.9° (Epoch: 19 January)

Event Time Altitude Azimuth Distance (km) Brightness Sun altitude
Rises 04:18:42 0° 155° (SSE) 2,896 7.3 -28.5°
Reaches altitude 10° 04:20:54 10° 153° (SSE) 1,994 6.5 -28.1°
Enters shadow 04:24:20 52° 125° (SE) 784 4.2 -27.6°
